sat.trackr.live / text

‹ back to catalog

STARLINK-35932

NORAD 66526 · 2025-265L

PAYLOAD ACTIVE UNKNOWN

§ Identity

Operator
Country
US
Launch date
2025-11-19
Launch site
AFETR
Launch vehicle
Mass (kg)
RCS (m²)

Purposes: comms

External: N2YO · Heavens-Above · Gunter

§ Orbital elements

Epoch: 2026-09-20T08:10:29.103168Z

Period
94.27 min
Inclination
42.9999°
Eccentricity
0.0001294
Mean motion
15.27586682 rev/d
Perigee alt
482.1 km
Apogee alt
483.9 km
Semi-major
6,861.2 km
B*
3.2726e-4
RAAN
258.5772°
Arg perigee
273.7028°
Mean anomaly
86.3675°
Rev number
4,688

§ Raw data

STARLINK-359321 66526U 25265L   26263.34061462  .00008756  00000+0  32726-3 0  99982 66526  42.9999 258.5772 0001294 273.7028  86.3675 15.27586682 46881

JSON: /api/v1/satellites/66526 · /tle

For live sub-satellite position, see the globe view (requires WebGL).

§ Visibility from observer

Set your observer location to see the next 7 days of passes ≥ 10°. The values pass through the URL so the page stays shareable.

No JS? Fill the form by hand. The geolocation button needs JavaScript.